Observer details:
046 Klet.  Observers J. Ticha, M. Tichy, M. Kocer, P. Jelinek.  0.57-m f/5.2
    reflector + CCD.
106 Crni Vrh.  Observers H. Mikuz.  0.36-m f/6.7 Schmidt-Cassegrain + CCD.
118 Modra.  Observers A. Galad, P. Koleny.  0.6-m f/5.5 reflector + CCD.
151 Eschenberg Observatory, Winterthur.  Observer M. Griesser.  0.40-m f/5.8
    Hypergraph.
557 Ondrejov.  Observer P. Kusnirak.  0.65-m f/3.6 reflector + CCD.
587 Sormano.  Observers F. Manca, P. Ghezzi.  0.5-m reflector + CCD.
595 Farra d'Isonzo.  Observers E. Pettarin, L. Bittesini, G. Lombardi.
    0.40-m f/4.5 reflector + CCD.
636 Essen.  Observer A. Knoefel.  0.318-m f/5.7 reflector + CCD
642 Oak Bay, Victoria.  Observer C. E. Spratt.  0.20-m f/3.7 Schmidt-Cassegrain
    + CCD.
670 Camarillo.  Observer J. E. Rogers.  0.30-m f/6.7 Helin Telescope + CCD.
704 Lincoln Laboratory ETS, New Mexico.  Observers M. Blythe, F. Shelly,
    M. Bezpalko, M. Elowitz, R. Huber, L. Manguso.  Measurers J. Stuart,
    R. Sayer, J. B. Evans, H. Viggh.  1.0-m f/2.15 reflector + CCD.
739 Sunflower Observatory, Olathe.  Observer L. Robinson.  0.25-m
    Schmidt-Cassegrain + CCD.
808 El Leoncito.  Observers C. E. Lopez, H. S. Lepez, J. A. Vicentela.
    0.5-m f/7.5 double astrograph + CCD.
850 Cordell-Lorenz Observatory, Sewanee.  Observer D. T. Durig.  0.3-m f/5.75
    Schmidt-Cassegrain + CCD.
858 Tebbutt Observatory, Edgewood.  Observer F. B. Zoltowski.  0.3-m f/3.3
    Schmidt-Cassegrain + CCD.
900 Moriyama.  Observer Y. Ikari.  0.25-m f/6.3 reflector + CCD.

Orbital elements:
2000 SP43                                                            PHA 0.018
Epoch 2000 Sept. 13.0 TT = JDT 2451800.5                Spahr
M  83.70345              (2000.0)            P               Q
n   1.34930015     Peri.  224.24349     -0.81731664     +0.57547883
a   0.8110800      Node   350.76096     -0.46677591     -0.69039477
e   0.4639524      Incl.   10.25889     -0.33780727     -0.43838245
P   0.73           H   18.7           G   0.15
From 95 observations 2000 Sept. 25-28.

Ephemeris:
2000 SP43                a,e,i = 0.81, 0.46, 10                  q = 0.4348
Date    TT    R. A. (2000) Decl.     Delta      r     Elong.  Phase     V
2000 09 23    17 42.35   -07 52.0    0.068    1.000    85.4    90.7    16.1
2000 10 03    20 04.99   -00 49.8    0.132    1.057   111.9    61.5    16.6
2000 10 13    20 52.12   +01 35.4    0.213    1.103   114.6    55.3    17.6
2000 10 23    21 18.38   +02 50.0    0.296    1.139   111.9    54.1    18.3
2000 11 02    21 38.52   +03 46.4    0.381    1.165   107.6    54.3    18.9
2000 11 12    21 56.67   +04 41.5    0.464    1.181   102.6    54.9    19.4
2000 11 22    22 14.22   +05 40.8    0.545    1.187    97.3    55.6    19.8
2000 12 02    22 31.86   +06 47.0    0.621    1.184    92.1    56.3    20.1
2000 12 12    22 49.84   +08 01.0    0.690    1.170    86.8    57.1    20.3
2000 12 22    23 08.24   +09 21.9    0.750    1.147    81.6    58.0    20.5
2001 01 01    23 27.20   +10 48.8    0.800    1.114    76.6    59.1    20.6
2001 01 11    23 46.68   +12 19.9    0.836    1.071    71.6    60.6    20.6
2001 01 21    00 06.63   +13 51.8    0.856    1.017    66.7    62.7    20.6

Timothy B. Spahr             (C) Copyright 2000 MPC           M.P.E.C. 2000-S64

Read MPEC 2000-S63 Read MPEC 2000-S65


Our Web policy. Index to the CBAT/MPC/ICQ pages.

